When you browse on this site, cookies collect data to enhance your experience and personalize the content and advertising you see.
Visit our Privacy Policy to learn more. By continuing to use the site, you agree to this use of cookies and data.
  • In Schweiz
  • Länderverzeichnis
  • Für 7 Tage
  • Wassertemperatur
  • Wetterkarte
  • Widgets
  • user-avatar
    Anmelden

    Stündliche Wetter Constantine

    Heute, 7 Juni, Sonntag

    Zeit Temperatur Niederschläge Wind Luftdruck Luftfeuchtigkeit
    00:00 +24°C° 0 mm 2 m/S 706 mmHg 32%
    01:00 +24°C° 0 mm 1 m/S 705 mmHg 33%
    02:00 +24°C° 0 mm 1 m/S 705 mmHg 33%
    03:00 +24°C° 0 mm 1 m/S 705 mmHg 33%
    04:00 +24°C° 0.1 mm 1 m/S 705 mmHg 37%
    05:00 +24°C° 0.1 mm 1 m/S 705 mmHg 40%
    06:00 +24°C° 0.1 mm 1 m/S 706 mmHg 44%
    07:00 +26°C° 0.1 mm 2 m/S 706 mmHg 41%
    08:00 +27°C° 0.1 mm 3 m/S 706 mmHg 38%
    09:00 +29°C° 0.1 mm 4 m/S 707 mmHg 35%
    10:00 +29°C° 0 mm 4 m/S 707 mmHg 35%
    11:00 +29°C° 0 mm 5 m/S 707 mmHg 36%
    12:00 +30°C° 0 mm 5 m/S 707 mmHg 37%
    13:00 +29°C° 0 mm 6 m/S 707 mmHg 37%
    14:00 +29°C° 0 mm 6 m/S 707 mmHg 38%
    15:00 +28°C° 0 mm 6 m/S 706 mmHg 39%
    16:00 +27°C° 0 mm 6 m/S 706 mmHg 43%
    17:00 +26°C° 0 mm 5 m/S 706 mmHg 46%
    18:00 +23°C° 0 mm 4 m/S 706 mmHg 50%
    19:00 +22°C° 0 mm 3 m/S 707 mmHg 56%
    20:00 +21°C° 0 mm 2 m/S 707 mmHg 61%
    21:00 +19°C° 0 mm 2 m/S 707 mmHg 67%
    22:00 +20°C° 0 mm 1 m/S 707 mmHg 68%
    23:00 +20°C° 0 mm 1 m/S 707 mmHg 69%

    Morgen, 8 Juni, Montag

    Zeit Temperatur Niederschläge Wind Luftdruck Luftfeuchtigkeit
    00:00 +20°C° 0 mm 1 m/S 707 mmHg 69%
    01:00 +19°C° 0 mm 1 m/S 706 mmHg 70%
    02:00 +19°C° 0 mm 1 m/S 706 mmHg 72%
    03:00 +18°C° 0 mm 1 m/S 705 mmHg 73%
    04:00 +17°C° 0 mm 0 m/S 706 mmHg 69%
    05:00 +18°C° 0 mm 0 m/S 706 mmHg 66%
    06:00 +19°C° 0 mm 0 m/S 706 mmHg 62%
    07:00 +21°C° 0 mm 0 m/S 707 mmHg 57%
    08:00 +24°C° 0 mm 1 m/S 707 mmHg 51%
    09:00 +26°C° 0 mm 1 m/S 708 mmHg 45%
    10:00 +27°C° 0 mm 1 m/S 708 mmHg 40%
    11:00 +28°C° 0 mm 2 m/S 707 mmHg 35%
    12:00 +30°C° 0 mm 2 m/S 707 mmHg 30%
    13:00 +29°C° 0.1 mm 3 m/S 707 mmHg 36%
    14:00 +28°C° 0.1 mm 4 m/S 707 mmHg 41%
    15:00 +27°C° 0.1 mm 5 m/S 707 mmHg 47%
    16:00 +25°C° 0.4 mm 5 m/S 707 mmHg 55%
    17:00 +23°C° 0.4 mm 4 m/S 707 mmHg 62%
    18:00 +21°C° 0.4 mm 4 m/S 707 mmHg 70%
    19:00 +20°C° 0.2 mm 3 m/S 707 mmHg 75%
    20:00 +19°C° 0.2 mm 2 m/S 707 mmHg 79%
    21:00 +19°C° 0.2 mm 1 m/S 708 mmHg 84%
    22:00 +19°C° 0.2 mm 1 m/S 707 mmHg 83%
    23:00 +19°C° 0.2 mm 1 m/S 707 mmHg 83%

    übermorgen, 9 Juni, Dienstag

    Zeit Temperatur Niederschläge Wind Luftdruck Luftfeuchtigkeit
    00:00 +19°C° 0.2 mm 1 m/S 707 mmHg 83%
    01:00 +18°C° 0 mm 1 m/S 707 mmHg 84%
    02:00 +18°C° 0 mm 1 m/S 707 mmHg 85%
    03:00 +18°C° 0 mm 1 m/S 707 mmHg 86%
    04:00 +18°C° 0 mm 1 m/S 707 mmHg 83%
    05:00 +19°C° 0 mm 1 m/S 707 mmHg 79%
    06:00 +19°C° 0 mm 1 m/S 707 mmHg 75%
    07:00 +21°C° 0 mm 1 m/S 708 mmHg 68%
    08:00 +22°C° 0 mm 1 m/S 708 mmHg 62%
    09:00 +24°C° 0 mm 1 m/S 708 mmHg 55%
    10:00 +24°C° 0.1 mm 2 m/S 709 mmHg 52%
    11:00 +25°C° 0.1 mm 2 m/S 709 mmHg 48%
    12:00 +26°C° 0.1 mm 3 m/S 709 mmHg 44%
    13:00 +26°C° 0.2 mm 4 m/S 709 mmHg 48%
    14:00 +25°C° 0.2 mm 4 m/S 708 mmHg 52%
    15:00 +25°C° 0.2 mm 5 m/S 708 mmHg 56%
    16:00 +23°C° 0.1 mm 5 m/S 708 mmHg 61%
    17:00 +21°C° 0.1 mm 4 m/S 708 mmHg 66%
    18:00 +20°C° 0.1 mm 4 m/S 708 mmHg 72%
    19:00 +19°C° 0 mm 3 m/S 709 mmHg 76%
    20:00 +18°C° 0 mm 2 m/S 709 mmHg 81%
    21:00 +18°C° 0 mm 1 m/S 710 mmHg 86%
    22:00 +18°C° 0 mm 1 m/S 710 mmHg 88%
    23:00 +16°C° 0 mm 1 m/S 710 mmHg 89%

    10 Juni, Mittwoch

    Zeit Temperatur Niederschläge Wind Luftdruck Luftfeuchtigkeit
    00:00 +16°C° 0 mm 1 m/S 710 mmHg 90%
    01:00 +16°C° 0 mm 1 m/S 709 mmHg 91%
    02:00 +14°C° 0 mm 0 m/S 709 mmHg 91%
    03:00 +14°C° 0 mm 0 m/S 709 mmHg 91%
    04:00 +15°C° 0 mm 0 m/S 709 mmHg 87%
    05:00 +16°C° 0 mm 0 m/S 709 mmHg 84%
    06:00 +16°C° 0 mm 0 m/S 709 mmHg 80%
    07:00 +20°C° 0 mm 1 m/S 710 mmHg 69%
    08:00 +22°C° 0 mm 1 m/S 710 mmHg 58%
    09:00 +24°C° 0 mm 1 m/S 711 mmHg 47%
    10:00 +25°C° 0 mm 1 m/S 711 mmHg 41%
    11:00 +26°C° 0 mm 2 m/S 711 mmHg 35%
    12:00 +28°C° 0 mm 3 m/S 711 mmHg 29%
    13:00 +28°C° 0 mm 4 m/S 710 mmHg 31%
    14:00 +27°C° 0 mm 5 m/S 710 mmHg 34%
    15:00 +27°C° 0 mm 5 m/S 710 mmHg 36%
    16:00 +26°C° 0 mm 5 m/S 709 mmHg 44%
    17:00 +23°C° 0 mm 4 m/S 709 mmHg 51%
    18:00 +21°C° 0 mm 3 m/S 709 mmHg 58%
    19:00 +20°C° 0 mm 3 m/S 709 mmHg 62%
    20:00 +19°C° 0 mm 2 m/S 709 mmHg 65%
    21:00 +19°C° 0 mm 1 m/S 710 mmHg 69%
    22:00 +19°C° 0 mm 1 m/S 709 mmHg 68%
    23:00 +18°C° 0 mm 1 m/S 709 mmHg 68%

    11 Juni, Donnerstag

    Zeit Temperatur Niederschläge Wind Luftdruck Luftfeuchtigkeit
    00:00 +18°C° 0 mm 1 m/S 708 mmHg 68%
    01:00 +16°C° 0 mm 0 m/S 708 mmHg 68%
    02:00 +16°C° 0 mm 0 m/S 708 mmHg 69%
    03:00 +15°C° 0 mm 0 m/S 707 mmHg 69%
    04:00 +16°C° 0 mm 0 m/S 708 mmHg 66%
    05:00 +17°C° 0 mm 0 m/S 708 mmHg 62%
    06:00 +18°C° 0 mm 0 m/S 708 mmHg 59%
    07:00 +22°C° 0 mm 1 m/S 709 mmHg 52%
    08:00 +24°C° 0 mm 1 m/S 709 mmHg 45%
    09:00 +26°C° 0 mm 1 m/S 709 mmHg 38%
    10:00 +27°C° 0 mm 2 m/S 709 mmHg 34%
    11:00 +28°C° 0 mm 2 m/S 709 mmHg 29%
    12:00 +29°C° 0 mm 3 m/S 709 mmHg 25%
    13:00 +30°C° 0 mm 3 m/S 709 mmHg 23%
    14:00 +30°C° 0 mm 3 m/S 708 mmHg 22%
    15:00 +31°C° 0 mm 3 m/S 708 mmHg 21%
    16:00 +29°C° 0 mm 3 m/S 708 mmHg 25%
    17:00 +28°C° 0 mm 3 m/S 707 mmHg 30%
    18:00 +26°C° 0 mm 3 m/S 707 mmHg 34%
    19:00 +25°C° 0 mm 3 m/S 707 mmHg 37%
    20:00 +23°C° 0 mm 2 m/S 707 mmHg 40%
    21:00 +22°C° 0 mm 1 m/S 707 mmHg 43%
    22:00 +21°C° 0 mm 1 m/S 707 mmHg 44%
    23:00 +21°C° 0 mm 1 m/S 706 mmHg 45%

    12 Juni, Freitag

    Zeit Temperatur Niederschläge Wind Luftdruck Luftfeuchtigkeit
    00:00 +21°C° 0 mm 1 m/S 706 mmHg 46%
    01:00 +21°C° 0 mm 1 m/S 706 mmHg 46%
    02:00 +21°C° 0 mm 1 m/S 705 mmHg 46%
    03:00 +20°C° 0 mm 1 m/S 705 mmHg 46%
    04:00 +22°C° 0 mm 1 m/S 705 mmHg 44%
    05:00 +23°C° 0 mm 1 m/S 706 mmHg 42%
    06:00 +24°C° 0 mm 1 m/S 706 mmHg 40%
    07:00 +26°C° 0 mm 2 m/S 707 mmHg 36%
    08:00 +28°C° 0 mm 3 m/S 707 mmHg 33%
    09:00 +32°C° 0 mm 4 m/S 708 mmHg 30%
    10:00 +33°C° 0 mm 5 m/S 708 mmHg 28%
    11:00 +34°C° 0 mm 5 m/S 708 mmHg 27%
    12:00 +35°C° 0 mm 5 m/S 708 mmHg 25%
    13:00 +33°C° 0.1 mm 5 m/S 708 mmHg 26%
    14:00 +32°C° 0.1 mm 5 m/S 707 mmHg 27%
    15:00 +30°C° 0.1 mm 5 m/S 707 mmHg 29%
    16:00 +28°C° 0.1 mm 5 m/S 707 mmHg 33%
    17:00 +26°C° 0.1 mm 4 m/S 707 mmHg 38%
    18:00 +23°C° 0.1 mm 4 m/S 707 mmHg 43%
    19:00 +22°C° 0.1 mm 3 m/S 707 mmHg 49%
    20:00 +20°C° 0.1 mm 2 m/S 707 mmHg 54%
    21:00 +19°C° 0.1 mm 2 m/S 708 mmHg 60%
    22:00 +20°C° 0 mm 1 m/S 708 mmHg 61%
    23:00 +19°C° 0 mm 1 m/S 708 mmHg 62%
    Mehr zeigen